User: anonymous   Login
Location: Theydon Bois
(51.6750°N, 0.1050°E)
Time: 00:55:13
(UTC+01:00)
Language:

Cosmos 1400 Rocket - Orbit

View from above orbital plane
View from above orbital plane
View from above satellite
View from above satellite

Ground track
Ground track

The orbit data is extracted from the following two-line orbital elements,

1 13403U 82079B   17291.58578464 +.00000017 +00000-0 -40809-6 0  9990
2 13403 081.1676 128.0045 0033238 229.8362 129.9950 15.06690245915089
Epoch (UTC): 18 October 2017 14:03:31
Eccentricity: 0.0033238
inclination: 81.1676°
perigee height: 523 km
apogee height: 569 km
right ascension of ascending node: 128.0045°
argument of perigee: 229.8362°
revolutions per day: 15.06690245
mean anomaly at epoch: 129.9950°
orbit number at epoch: 91508

The dashed part of the orbit path shows where the satellite is in the earth's shadow,  

DLR